Year,Month,Day,Hour,Minute,Value (Times are PST for windgust in km/hr)
2015,08,26,00,04,1.60
2015,08,26,00,05,3.20
2015,08,26,00,06,1.60
2015,08,26,00,07,3.20
2015,08,26,00,08,1.60
2015,08,26,00,10,1.60
2015,08,26,00,11,3.20
2015,08,26,00,12,3.20
2015,08,26,00,13,3.20
2015,08,26,00,14,4.80
2015,08,26,00,15,4.80
2015,08,26,00,16,3.20
2015,08,26,00,17,4.80
2015,08,26,00,18,3.20
2015,08,26,00,19,1.60
2015,08,26,00,20,3.20
2015,08,26,00,21,1.60
2015,08,26,00,22,1.60
2015,08,26,00,23,1.60
2015,08,26,00,24,1.60
2015,08,26,00,25,1.60
2015,08,26,00,26,1.60
2015,08,26,00,27,1.60
2015,08,26,00,29,1.60
2015,08,26,00,30,1.60
2015,08,26,00,31,1.60
2015,08,26,00,32,1.60
2015,08,26,00,33,1.60
2015,08,26,00,34,3.20
2015,08,26,00,35,1.60
2015,08,26,00,36,1.60
2015,08,26,00,37,1.60
2015,08,26,00,38,1.60
2015,08,26,00,42,1.60
2015,08,26,00,43,3.20
2015,08,26,00,44,3.20
2015,08,26,00,45,1.60
2015,08,26,00,47,1.60
2015,08,26,00,48,3.20
2015,08,26,00,49,1.60
2015,08,26,00,50,3.20
2015,08,26,00,51,3.20
2015,08,26,00,52,3.20
2015,08,26,00,53,1.60
2015,08,26,00,54,1.60
2015,08,26,00,55,1.60
2015,08,26,00,56,1.60
2015,08,26,00,57,1.60
2015,08,26,00,58,3.20
2015,08,26,00,59,3.20
2015,08,26,01,00,1.60
2015,08,26,01,01,1.60
2015,08,26,01,02,1.60
2015,08,26,01,03,1.60
2015,08,26,01,04,4.80
2015,08,26,01,05,3.20
2015,08,26,01,06,3.20
2015,08,26,01,07,4.80
2015,08,26,01,08,3.20
2015,08,26,01,09,4.80
2015,08,26,01,10,4.80
2015,08,26,01,11,3.20
2015,08,26,01,12,3.20
2015,08,26,01,13,4.80
2015,08,26,01,14,3.20
2015,08,26,01,15,3.20
2015,08,26,01,16,3.20
2015,08,26,01,17,3.20
2015,08,26,01,18,1.60
2015,08,26,01,19,1.60
2015,08,26,01,20,1.60
2015,08,26,01,21,1.60
2015,08,26,01,22,3.20
2015,08,26,01,23,3.20
2015,08,26,01,24,4.80
2015,08,26,01,25,3.20
2015,08,26,01,26,3.20
2015,08,26,01,27,3.20
2015,08,26,01,28,4.80
2015,08,26,01,29,4.80
2015,08,26,01,30,4.80
2015,08,26,01,31,4.80
2015,08,26,01,32,4.80
2015,08,26,01,33,4.80
2015,08,26,01,34,4.80
2015,08,26,01,35,3.20
2015,08,26,01,36,3.20
2015,08,26,01,37,3.20
2015,08,26,01,38,3.20
2015,08,26,01,39,6.40
2015,08,26,01,40,4.80
2015,08,26,01,41,3.20
2015,08,26,01,42,1.60
2015,08,26,01,43,3.20
2015,08,26,01,44,3.20
2015,08,26,01,45,3.20
2015,08,26,01,46,3.20
2015,08,26,01,47,3.20
2015,08,26,01,48,3.20
2015,08,26,01,49,3.20
2015,08,26,01,50,3.20
2015,08,26,01,51,3.20
2015,08,26,01,52,1.60
2015,08,26,01,53,3.20
2015,08,26,01,54,3.20
2015,08,26,01,55,3.20
2015,08,26,01,56,3.20
2015,08,26,01,57,3.20
2015,08,26,01,58,4.80
2015,08,26,01,59,3.20
2015,08,26,02,00,3.20
2015,08,26,02,01,3.20
2015,08,26,02,02,1.60
2015,08,26,02,03,1.60
2015,08,26,02,04,1.60
2015,08,26,02,05,3.20
2015,08,26,02,06,3.20
2015,08,26,02,07,3.20
2015,08,26,02,08,3.20
2015,08,26,02,09,3.20
2015,08,26,02,10,3.20
2015,08,26,02,11,3.20
2015,08,26,02,12,1.60
2015,08,26,02,13,3.20
2015,08,26,02,14,1.60
2015,08,26,02,15,1.60
2015,08,26,02,18,3.20
2015,08,26,02,19,3.20
2015,08,26,02,20,3.20
2015,08,26,02,21,1.60
2015,08,26,02,23,1.60
2015,08,26,02,24,3.20
2015,08,26,02,25,3.20
2015,08,26,02,26,1.60
2015,08,26,02,27,3.20
2015,08,26,02,28,3.20
2015,08,26,02,29,1.60
2015,08,26,02,30,1.60
2015,08,26,02,31,4.80
2015,08,26,02,32,3.20
2015,08,26,02,33,3.20
2015,08,26,02,34,3.20
2015,08,26,02,35,3.20
2015,08,26,02,36,4.80
2015,08,26,02,37,3.20
2015,08,26,02,42,3.20
2015,08,26,02,43,3.20
2015,08,26,02,44,3.20
2015,08,26,02,45,1.60
2015,08,26,02,46,1.60
2015,08,26,02,47,1.60
2015,08,26,02,48,1.60
2015,08,26,02,49,3.20
2015,08,26,02,50,1.60
2015,08,26,02,51,1.60
2015,08,26,02,52,1.60
2015,08,26,02,53,3.20
2015,08,26,02,54,3.20
2015,08,26,02,55,3.20
2015,08,26,02,56,1.60
2015,08,26,02,57,1.60
2015,08,26,02,58,1.60
2015,08,26,03,03,1.60
2015,08,26,03,04,1.60
2015,08,26,03,05,1.60
2015,08,26,03,07,1.60
2015,08,26,03,10,1.60
2015,08,26,03,11,1.60
2015,08,26,03,12,1.60
2015,08,26,03,14,1.60
2015,08,26,03,17,1.60
2015,08,26,03,29,1.60
2015,08,26,03,30,1.60
2015,08,26,03,32,3.20
2015,08,26,03,33,1.60
2015,08,26,03,34,1.60
2015,08,26,03,35,1.60
2015,08,26,03,41,1.60
2015,08,26,03,42,3.20
2015,08,26,03,43,1.60
2015,08,26,03,44,3.20
2015,08,26,03,45,1.60
2015,08,26,03,46,1.60
2015,08,26,03,47,3.20
2015,08,26,03,48,1.60
2015,08,26,03,49,1.60
2015,08,26,03,50,1.60
2015,08,26,03,51,1.60
2015,08,26,03,52,1.60
2015,08,26,03,53,1.60
2015,08,26,03,54,3.20
2015,08,26,03,55,3.20
2015,08,26,03,56,1.60
2015,08,26,03,57,1.60
2015,08,26,03,58,3.20
2015,08,26,03,59,3.20
2015,08,26,04,00,3.20
2015,08,26,04,01,3.20
2015,08,26,04,02,1.60
2015,08,26,04,03,1.60
2015,08,26,04,04,1.60
2015,08,26,04,05,1.60
2015,08,26,04,06,1.60
2015,08,26,04,07,3.20
2015,08,26,04,08,1.60
2015,08,26,04,09,3.20
2015,08,26,04,10,1.60
2015,08,26,08,42,4.80
2015,08,26,08,43,4.80
2015,08,26,08,44,4.80
2015,08,26,08,45,4.80
2015,08,26,08,46,6.40
2015,08,26,08,47,8.10
2015,08,26,08,48,6.40
2015,08,26,08,49,6.40
2015,08,26,08,50,6.40
2015,08,26,08,51,4.80
2015,08,26,08,52,8.10
2015,08,26,08,53,4.80
2015,08,26,08,54,4.80
2015,08,26,08,55,4.80
2015,08,26,08,56,4.80
2015,08,26,08,57,4.80
2015,08,26,08,58,1.60
2015,08,26,08,59,3.20
2015,08,26,09,00,1.60
2015,08,26,09,01,1.60
2015,08,26,09,02,3.20
2015,08,26,09,03,3.20
2015,08,26,09,04,4.80
2015,08,26,09,05,3.20
2015,08,26,09,06,1.60
2015,08,26,09,07,1.60
2015,08,26,09,11,3.20
2015,08,26,09,12,3.20
2015,08,26,09,13,1.60
2015,08,26,09,15,1.60
2015,08,26,09,16,3.20
2015,08,26,09,17,3.20
2015,08,26,09,18,3.20
2015,08,26,09,19,3.20
2015,08,26,09,20,4.80
2015,08,26,09,21,4.80
2015,08,26,09,22,3.20
2015,08,26,09,23,3.20
2015,08,26,09,24,1.60
2015,08,26,09,30,1.60
2015,08,26,09,32,1.60
2015,08,26,09,33,1.60
2015,08,26,09,34,1.60
2015,08,26,09,35,3.20
2015,08,26,09,36,1.60
2015,08,26,09,37,1.60
2015,08,26,09,38,1.60
2015,08,26,09,39,3.20
2015,08,26,09,40,3.20
2015,08,26,09,41,3.20
2015,08,26,09,42,3.20
2015,08,26,09,44,4.80
2015,08,26,09,45,3.20
2015,08,26,09,46,4.80
2015,08,26,09,47,3.20
2015,08,26,09,48,4.80
2015,08,26,09,49,6.40
2015,08,26,09,50,8.10
2015,08,26,09,51,3.20
2015,08,26,09,52,1.60
2015,08,26,09,54,1.60
2015,08,26,09,55,4.80
2015,08,26,09,56,4.80
2015,08,26,09,57,3.20
2015,08,26,09,58,3.20
2015,08,26,09,59,1.60
2015,08,26,10,00,4.80
2015,08,26,10,01,4.80
2015,08,26,10,02,4.80
2015,08,26,10,03,6.40
2015,08,26,10,04,11.30
2015,08,26,10,05,11.30
2015,08,26,10,06,14.50
2015,08,26,10,07,12.90
2015,08,26,10,08,6.40
2015,08,26,10,09,11.30
2015,08,26,10,10,14.50
2015,08,26,10,11,11.30
2015,08,26,10,12,11.30
2015,08,26,10,13,12.90
2015,08,26,10,14,14.50
2015,08,26,10,15,9.60
2015,08,26,10,16,14.50
2015,08,26,10,17,16.10
2015,08,26,10,18,8.10
2015,08,26,10,19,14.50
2015,08,26,10,20,14.50
2015,08,26,10,21,6.40
2015,08,26,10,22,11.30
2015,08,26,10,23,14.50
2015,08,26,10,24,17.70
2015,08,26,10,25,16.10
2015,08,26,10,26,11.30
2015,08,26,10,27,9.60
2015,08,26,10,28,12.90
2015,08,26,10,29,12.90
2015,08,26,10,30,17.70
2015,08,26,10,31,14.50
2015,08,26,10,32,12.90
2015,08,26,10,33,9.60
2015,08,26,10,34,12.90
2015,08,26,10,35,12.90
2015,08,26,10,36,12.90
2015,08,26,10,37,12.90
2015,08,26,10,38,14.50
2015,08,26,10,39,14.50
2015,08,26,10,40,14.50
2015,08,26,10,41,11.30
2015,08,26,10,42,12.90
2015,08,26,10,43,11.30
2015,08,26,10,44,12.90
2015,08,26,10,45,11.30
2015,08,26,10,46,11.30
2015,08,26,10,47,12.90
2015,08,26,10,48,6.40
2015,08,26,10,49,14.50
2015,08,26,10,50,11.30
2015,08,26,10,51,14.50
2015,08,26,10,52,12.90
2015,08,26,10,53,11.30
2015,08,26,10,54,14.50
2015,08,26,10,55,14.50
2015,08,26,10,56,16.10
2015,08,26,10,57,14.50
2015,08,26,10,58,14.50
2015,08,26,10,59,12.90
2015,08,26,11,00,12.90
2015,08,26,11,01,12.90
2015,08,26,11,02,17.70
2015,08,26,11,03,12.90
2015,08,26,11,04,14.50
2015,08,26,11,05,16.10
2015,08,26,11,06,14.50
2015,08,26,11,07,16.10
2015,08,26,11,08,17.70
2015,08,26,11,09,11.30
2015,08,26,11,10,8.10
2015,08,26,11,11,11.30
2015,08,26,11,12,11.30
2015,08,26,11,13,14.50
2015,08,26,11,14,8.10
2015,08,26,11,15,11.30
2015,08,26,11,16,12.90
2015,08,26,11,17,4.80
2015,08,26,11,18,17.70
2015,08,26,11,19,12.90
2015,08,26,11,20,12.90
2015,08,26,11,21,14.50
2015,08,26,11,22,16.10
2015,08,26,11,23,9.60
2015,08,26,11,24,12.90
2015,08,26,11,25,11.30
2015,08,26,11,26,14.50
2015,08,26,11,27,11.30
2015,08,26,11,28,17.70
2015,08,26,11,29,16.10
2015,08,26,11,30,20.90
2015,08,26,11,31,14.50
2015,08,26,11,32,16.10
2015,08,26,11,33,17.70
2015,08,26,11,34,12.90
2015,08,26,11,35,12.90
2015,08,26,11,36,14.50
2015,08,26,11,37,12.90
2015,08,26,11,38,12.90
2015,08,26,11,39,9.60
2015,08,26,11,40,14.50
2015,08,26,11,41,16.10
2015,08,26,11,42,16.10
2015,08,26,11,43,14.50
2015,08,26,11,44,12.90
2015,08,26,11,45,12.90
2015,08,26,11,46,8.10
2015,08,26,11,47,14.50
2015,08,26,11,48,16.10
2015,08,26,11,49,16.10
2015,08,26,11,50,12.90
2015,08,26,11,51,9.60
2015,08,26,11,52,11.30
2015,08,26,11,53,11.30
2015,08,26,11,54,16.10
2015,08,26,11,55,12.90
2015,08,26,11,56,8.10
2015,08,26,11,57,17.70
2015,08,26,11,58,12.90
2015,08,26,11,59,14.50
2015,08,26,12,00,9.60
2015,08,26,12,01,16.10
2015,08,26,12,02,12.90
2015,08,26,12,03,11.30
2015,08,26,12,04,14.50
2015,08,26,12,05,14.50
2015,08,26,12,06,11.30
2015,08,26,12,07,16.10
2015,08,26,12,08,12.90
2015,08,26,12,09,14.50
2015,08,26,12,10,12.90
2015,08,26,12,11,14.50
2015,08,26,12,12,11.30
2015,08,26,12,13,9.60
2015,08,26,12,14,12.90
2015,08,26,12,15,11.30
2015,08,26,12,16,6.40
2015,08,26,12,17,11.30
2015,08,26,12,18,6.40
2015,08,26,12,19,12.90
2015,08,26,12,20,11.30
2015,08,26,12,21,9.60
2015,08,26,12,22,9.60
2015,08,26,12,23,8.10
2015,08,26,12,24,4.80
2015,08,26,12,25,11.30
2015,08,26,12,26,11.30
2015,08,26,12,27,9.60
2015,08,26,12,28,9.60
2015,08,26,12,29,4.80
2015,08,26,12,30,9.60
2015,08,26,12,31,8.10
2015,08,26,12,32,16.10
2015,08,26,12,33,6.40
2015,08,26,12,34,6.40
2015,08,26,12,35,9.60
2015,08,26,12,36,8.10
2015,08,26,12,37,4.80
2015,08,26,12,38,6.40
2015,08,26,12,39,6.40
2015,08,26,12,40,11.30
2015,08,26,12,41,8.10
2015,08,26,12,42,9.60
2015,08,26,12,43,4.80
2015,08,26,12,44,8.10
2015,08,26,12,45,6.40
2015,08,26,12,46,6.40
2015,08,26,12,47,6.40
2015,08,26,12,48,4.80
2015,08,26,12,49,4.80
2015,08,26,12,50,11.30
2015,08,26,12,51,12.90
2015,08,26,12,52,6.40
2015,08,26,12,53,8.10
2015,08,26,12,54,3.20
2015,08,26,12,55,3.20
2015,08,26,12,56,3.20
2015,08,26,12,57,6.40
2015,08,26,12,58,4.80
2015,08,26,12,59,3.20
2015,08,26,13,00,4.80
2015,08,26,13,01,4.80
2015,08,26,13,02,6.40
2015,08,26,13,03,4.80
2015,08,26,13,04,6.40
2015,08,26,13,05,6.40
2015,08,26,13,06,4.80
2015,08,26,13,07,8.10
2015,08,26,13,08,12.90
2015,08,26,13,09,11.30
2015,08,26,13,10,8.10
2015,08,26,13,11,9.60
2015,08,26,13,12,11.30
2015,08,26,13,13,4.80
2015,08,26,13,14,11.30
2015,08,26,13,15,12.90
2015,08,26,13,16,14.50
2015,08,26,13,17,8.10
2015,08,26,13,18,12.90
2015,08,26,13,19,9.60
2015,08,26,13,20,9.60
2015,08,26,13,21,6.40
2015,08,26,13,22,16.10
2015,08,26,13,23,14.50
2015,08,26,13,24,4.80
2015,08,26,13,25,9.60
2015,08,26,13,26,9.60
2015,08,26,13,27,11.30
2015,08,26,13,28,6.40
2015,08,26,13,29,11.30
2015,08,26,13,30,8.10
2015,08,26,13,31,12.90
2015,08,26,13,32,9.60
2015,08,26,13,33,12.90
2015,08,26,13,34,9.60
2015,08,26,13,35,11.30
2015,08,26,13,36,11.30
2015,08,26,13,37,6.40
2015,08,26,13,38,8.10
2015,08,26,13,39,11.30
2015,08,26,13,40,12.90
2015,08,26,13,41,6.40
2015,08,26,13,42,6.40
2015,08,26,13,43,8.10
2015,08,26,13,44,11.30
2015,08,26,13,45,6.40
2015,08,26,13,46,11.30
2015,08,26,13,47,11.30
2015,08,26,13,48,8.10
2015,08,26,13,49,9.60
2015,08,26,13,50,8.10
2015,08,26,13,51,9.60
2015,08,26,13,52,8.10
2015,08,26,13,53,6.40
2015,08,26,13,54,9.60
2015,08,26,13,55,8.10
2015,08,26,13,56,9.60
2015,08,26,13,57,8.10
2015,08,26,13,58,8.10
2015,08,26,13,59,14.50
2015,08,26,14,00,12.90
2015,08,26,14,01,14.50
2015,08,26,14,02,12.90
2015,08,26,14,03,9.60
2015,08,26,14,04,6.40
2015,08,26,14,05,8.10
2015,08,26,14,06,9.60
2015,08,26,14,07,6.40
2015,08,26,14,08,9.60
2015,08,26,14,09,8.10
2015,08,26,14,10,9.60
2015,08,26,14,11,11.30
2015,08,26,14,12,8.10
2015,08,26,14,13,9.60
2015,08,26,14,14,9.60
2015,08,26,14,15,11.30
2015,08,26,14,16,11.30
2015,08,26,14,17,11.30
2015,08,26,14,18,6.40
2015,08,26,14,19,9.60
2015,08,26,14,20,6.40
2015,08,26,14,21,4.80
2015,08,26,14,22,8.10
2015,08,26,14,23,9.60
2015,08,26,14,24,8.10
2015,08,26,14,25,8.10
2015,08,26,14,26,11.30
2015,08,26,14,27,9.60
2015,08,26,14,28,11.30
2015,08,26,14,29,14.50
2015,08,26,14,30,9.60
2015,08,26,14,31,6.40
2015,08,26,14,32,6.40
2015,08,26,14,33,11.30
2015,08,26,14,34,12.90
2015,08,26,14,35,11.30
2015,08,26,14,36,11.30
2015,08,26,14,37,11.30
2015,08,26,14,38,14.50
2015,08,26,14,39,12.90
2015,08,26,14,40,12.90
2015,08,26,14,41,14.50
2015,08,26,14,42,16.10
2015,08,26,14,43,17.70
2015,08,26,14,44,16.10
2015,08,26,14,45,17.70
2015,08,26,14,46,17.70
2015,08,26,14,47,14.50
2015,08,26,14,48,9.60
2015,08,26,14,49,12.90
2015,08,26,14,50,11.30
2015,08,26,14,51,14.50
2015,08,26,14,52,9.60
2015,08,26,14,53,12.90
2015,08,26,14,54,8.10
2015,08,26,14,55,8.10
2015,08,26,14,56,14.50
2015,08,26,14,57,11.30
2015,08,26,14,58,11.30
2015,08,26,14,59,8.10
2015,08,26,15,00,4.80
2015,08,26,15,01,6.40
2015,08,26,15,02,11.30
2015,08,26,15,03,11.30
2015,08,26,15,04,8.10
2015,08,26,15,05,11.30
2015,08,26,15,06,14.50
2015,08,26,15,07,11.30
2015,08,26,15,08,12.90
2015,08,26,15,09,14.50
2015,08,26,15,10,12.90
2015,08,26,15,11,14.50
2015,08,26,15,12,14.50
2015,08,26,15,13,16.10
2015,08,26,15,14,12.90
2015,08,26,15,15,14.50
2015,08,26,15,16,14.50
2015,08,26,15,17,12.90
2015,08,26,15,18,12.90
2015,08,26,15,19,11.30
2015,08,26,15,20,8.10
2015,08,26,15,21,11.30
2015,08,26,15,22,9.60
2015,08,26,15,23,8.10
2015,08,26,15,24,4.80
2015,08,26,15,25,4.80
2015,08,26,15,26,4.80
2015,08,26,15,27,8.10
2015,08,26,15,28,4.80
2015,08,26,15,29,4.80
2015,08,26,15,30,8.10
2015,08,26,15,31,3.20
2015,08,26,15,32,11.30
2015,08,26,15,33,6.40
2015,08,26,15,34,4.80
2015,08,26,15,35,6.40
2015,08,26,15,36,12.90
2015,08,26,15,37,12.90
2015,08,26,15,38,8.10
2015,08,26,15,39,6.40
2015,08,26,15,40,9.60
2015,08,26,15,41,4.80
2015,08,26,15,42,14.50
2015,08,26,15,43,14.50
2015,08,26,15,44,8.10
2015,08,26,15,45,6.40
2015,08,26,15,46,8.10
2015,08,26,15,47,4.80
2015,08,26,15,48,4.80
2015,08,26,15,49,4.80
2015,08,26,15,50,4.80
2015,08,26,15,51,6.40
2015,08,26,15,52,4.80
2015,08,26,15,53,8.10
2015,08,26,15,54,4.80
2015,08,26,15,55,8.10
2015,08,26,15,56,8.10
2015,08,26,15,57,9.60
2015,08,26,15,58,6.40
2015,08,26,15,59,4.80
2015,08,26,16,00,4.80
2015,08,26,16,01,6.40
2015,08,26,16,02,4.80
2015,08,26,16,03,4.80
2015,08,26,16,04,3.20
2015,08,26,16,05,6.40
2015,08,26,16,06,4.80
2015,08,26,16,07,8.10
2015,08,26,16,08,8.10
2015,08,26,16,09,9.60
2015,08,26,16,10,4.80
2015,08,26,16,11,12.90
2015,08,26,16,12,9.60
2015,08,26,16,13,3.20
2015,08,26,16,14,4.80
2015,08,26,16,15,4.80
2015,08,26,16,16,4.80
2015,08,26,16,17,4.80
2015,08,26,16,18,4.80
2015,08,26,16,19,3.20
2015,08,26,16,20,4.80
2015,08,26,16,21,3.20
2015,08,26,16,22,4.80
2015,08,26,16,23,4.80
2015,08,26,16,24,8.10
2015,08,26,16,25,8.10
2015,08,26,16,26,4.80
2015,08,26,16,27,4.80
2015,08,26,16,28,4.80
2015,08,26,16,29,4.80
2015,08,26,16,30,6.40
2015,08,26,16,31,4.80
2015,08,26,16,32,3.20
2015,08,26,16,33,3.20
2015,08,26,16,34,1.60
2015,08,26,16,35,8.10
2015,08,26,16,36,3.20
2015,08,26,16,37,3.20
2015,08,26,16,38,1.60
2015,08,26,16,39,3.20
2015,08,26,16,40,3.20
2015,08,26,16,41,1.60
2015,08,26,16,42,4.80
2015,08,26,16,43,4.80
2015,08,26,16,44,3.20
2015,08,26,16,45,4.80
2015,08,26,16,46,6.40
2015,08,26,16,47,4.80
2015,08,26,16,48,8.10
2015,08,26,16,49,3.20
2015,08,26,16,50,3.20
2015,08,26,16,51,3.20
2015,08,26,16,52,3.20
2015,08,26,16,53,4.80
2015,08,26,16,54,4.80
2015,08,26,16,55,4.80
2015,08,26,16,56,4.80
2015,08,26,16,57,8.10
2015,08,26,16,58,4.80
2015,08,26,16,59,9.60
2015,08,26,17,00,3.20
2015,08,26,17,01,4.80
2015,08,26,17,02,4.80
2015,08,26,17,03,4.80
2015,08,26,17,04,4.80
2015,08,26,17,05,1.60
2015,08,26,17,06,3.20
2015,08,26,17,07,6.40
2015,08,26,17,08,4.80
2015,08,26,17,09,3.20
2015,08,26,17,10,4.80
2015,08,26,17,11,3.20
2015,08,26,17,12,3.20
2015,08,26,17,13,1.60
2015,08,26,17,14,1.60
2015,08,26,17,15,1.60
2015,08,26,17,16,1.60
2015,08,26,17,17,4.80
2015,08,26,17,18,4.80
2015,08,26,17,19,3.20
2015,08,26,17,20,4.80
2015,08,26,17,21,1.60
2015,08,26,17,22,4.80
2015,08,26,17,23,4.80
2015,08,26,17,24,1.60
2015,08,26,17,25,3.20
2015,08,26,17,26,4.80
2015,08,26,17,27,3.20
2015,08,26,17,28,3.20
2015,08,26,17,29,3.20
2015,08,26,17,30,3.20
2015,08,26,17,31,1.60
2015,08,26,17,32,1.60
2015,08,26,17,34,1.60
2015,08,26,17,36,1.60
2015,08,26,17,37,3.20
2015,08,26,17,38,4.80
2015,08,26,17,39,3.20
2015,08,26,17,41,1.60
2015,08,26,17,42,1.60
2015,08,26,17,43,1.60
2015,08,26,17,45,1.60
2015,08,26,17,46,1.60
2015,08,26,17,55,3.20
2015,08,26,17,56,3.20
2015,08,26,17,57,3.20
2015,08,26,17,58,3.20
2015,08,26,17,59,3.20
2015,08,26,18,00,3.20
2015,08,26,18,01,3.20
2015,08,26,18,02,3.20
2015,08,26,18,03,3.20
2015,08,26,18,04,3.20
2015,08,26,18,05,1.60
2015,08,26,18,06,1.60
2015,08,26,18,07,6.40
2015,08,26,18,08,4.80
2015,08,26,18,09,3.20
2015,08,26,18,10,1.60
2015,08,26,18,11,1.60
2015,08,26,18,12,1.60
2015,08,26,18,13,1.60
2015,08,26,18,14,1.60
2015,08,26,18,15,3.20
2015,08,26,18,16,3.20
2015,08,26,18,17,3.20
2015,08,26,18,18,3.20
2015,08,26,18,19,3.20
2015,08,26,18,20,3.20
2015,08,26,18,21,1.60
2015,08,26,18,22,3.20
2015,08,26,18,23,3.20
2015,08,26,18,24,3.20
2015,08,26,18,25,1.60
2015,08,26,18,26,1.60
2015,08,26,18,27,3.20
2015,08,26,18,28,1.60
2015,08,26,18,32,1.60
2015,08,26,18,47,1.60
2015,08,26,18,48,1.60
2015,08,26,18,49,1.60
2015,08,26,18,50,1.60
2015,08,26,18,51,1.60
2015,08,26,18,52,1.60
2015,08,26,18,53,1.60
2015,08,26,18,54,1.60
2015,08,26,18,56,1.60
2015,08,26,18,59,3.20
2015,08,26,19,00,1.60
2015,08,26,19,01,4.80
2015,08,26,19,05,1.60
2015,08,26,19,07,1.60
2015,08,26,19,16,3.20
2015,08,26,19,17,4.80
2015,08,26,19,18,3.20
2015,08,26,19,19,3.20
2015,08,26,19,20,3.20
2015,08,26,19,21,3.20
2015,08,26,19,22,3.20
2015,08,26,19,23,1.60
2015,08,26,19,27,1.60
2015,08,26,19,28,1.60
2015,08,26,19,29,3.20
2015,08,26,19,30,4.80
2015,08,26,19,31,4.80
2015,08,26,19,32,3.20
2015,08,26,19,33,1.60
2015,08,26,19,35,1.60
2015,08,26,20,16,1.60
2015,08,26,20,17,1.60
2015,08,26,20,18,1.60
2015,08,26,20,19,1.60
2015,08,26,20,22,1.60
2015,08,26,20,23,1.60
2015,08,26,20,24,1.60
2015,08,26,20,25,3.20
2015,08,26,20,26,3.20
2015,08,26,20,27,3.20
2015,08,26,20,34,1.60
2015,08,26,20,35,1.60
2015,08,26,20,36,1.60
2015,08,26,20,37,1.60
2015,08,26,20,45,3.20
2015,08,26,20,46,3.20
2015,08,26,20,47,3.20
2015,08,26,20,48,3.20
2015,08,26,20,49,1.60
2015,08,26,20,50,1.60
2015,08,26,20,51,1.60
2015,08,26,20,52,3.20
2015,08,26,20,53,4.80
2015,08,26,20,54,1.60
2015,08,26,20,55,1.60
2015,08,26,20,56,1.60
2015,08,26,20,57,1.60
2015,08,26,20,58,1.60
2015,08,26,21,04,3.20
2015,08,26,21,05,3.20
2015,08,26,21,06,3.20
2015,08,26,21,07,3.20
2015,08,26,21,08,3.20
2015,08,26,21,09,3.20
2015,08,26,21,10,3.20
2015,08,26,21,11,4.80
2015,08,26,21,12,1.60
2015,08,26,21,13,3.20
2015,08,26,21,14,3.20
2015,08,26,21,15,3.20
2015,08,26,21,16,1.60
2015,08,26,21,17,1.60
2015,08,26,21,18,1.60
2015,08,26,21,19,1.60
2015,08,26,21,20,1.60
2015,08,26,22,16,3.20
2015,08,26,22,17,3.20
2015,08,26,22,18,3.20
2015,08,26,22,19,1.60
2015,08,26,22,20,3.20
2015,08,26,22,21,3.20
2015,08,26,22,22,3.20
2015,08,26,22,23,4.80
2015,08,26,22,24,4.80
2015,08,26,22,25,4.80
2015,08,26,22,26,4.80
2015,08,26,22,27,3.20
2015,08,26,22,28,3.20
2015,08,26,22,29,1.60
2015,08,26,23,56,3.20
2015,08,26,23,57,4.80
2015,08,26,23,58,1.60
2015,08,26,23,59,3.20
